Powrót do katalogu

COSMOS 2352

AktywnyMilitariaPO
NORAD 25363·PAYLOAD·🇷🇺 Russia

Wystrzelony Jun 15, 1998 z Plesetsk Cosmodrome

Loading…

Następne Przeloty (najbliższe 24 godziny)

TLE

ŚwieżeSource: Space-Track

Epoka: Sep 14, 2026, 14:52 UTC

1 25363U 98036A   26257.61967375 -.00000000  00000-0 -96146-4 0  9993
2 25363  82.5924 310.3631 0353430  76.5038  74.6962 12.20138489258204

Śledź COSMOS 2352 w czasie rzeczywistym z AllMySat

Download on the App Store